User: anonymous   Login
Location: Aetna Mine
(37.6183°N, 107.6045°W)
Time: 00:51:55
(UTC+00:00)
Language:

Cosmos 1437 Rocket - Orbit

View from above orbital plane
View from above orbital plane
View from above satellite
View from above satellite

Ground track
Ground track

The orbit data is extracted from the following two-line orbital elements,

1 13771U 83003B   20336.48951415 +.00000448 +00000-0 +24903-4 0  9992
2 13771 081.1684 346.7849 0042995 133.4249 227.0568 15.10729574064466
Epoch (UTC): 01 December 2020 11:44:54
Eccentricity: 0.0042995
inclination: 81.1684°
perigee height: 504 km
apogee height: 563 km
right ascension of ascending node: 346.7849°
argument of perigee: 133.4249°
revolutions per day: 15.10729574
mean anomaly at epoch: 227.0568°
orbit number at epoch: 6446

The dashed part of the orbit path shows where the satellite is in the earth's shadow,  

DLR